Location: Kelshall
(52.0000°N, 0.0500°W)
Time: 21:09:49
(UTC+00:00)

ATLAS 2AS CENTAUR R/B - Pass Details

Date: 17 January 2021
Orbit: 947 x 1265 km, 63.7° (Epoch: 13 February)

Event Time Altitude Azimuth Distance (km) Brightness Sun altitude
Rises 20:25:03 0° 277° (W) 4,222 6.8 -36.6°
Reaches altitude 10° 20:28:13 10° 286° (WNW) 3,243 6.0 -37.1°
Maximum altitude 20:35:20 36° 350° (N) 1,853 4.0 -38.1°
Enters shadow 20:35:27 36° 352° (N) 1,852 4.0 -38.1°
